Location: Владивосток
(43.1151°N, 131.8856°E)
Time: 01:20:30
(UTC+10:00)

ISS - Visible Passes

Search period start: 24 September 2023 00:00
Search period end: 04 October 2023 00:00
Orbit: 414 x 422 km, 51.6° (Epoch: 23 September)

Date Brightness Start Highest point End Pass type
(mag) Time Alt. Az. Time Alt. Az. Time Alt. Az.
24 Sep -1.6 20:20:31 10° NW 20:23:00 19° N 20:24:52 13° NE visible
24 Sep -0.5 21:57:18 10° NW 21:57:48 13° NW 21:57:48 13° NW visible
25 Sep -1.6 19:32:18 10° NW 19:34:45 19° N 19:37:13 10° NE visible
25 Sep -1.9 21:09:22 10° NW 21:11:33 25° N 21:11:33 25° N visible
26 Sep -2.0 20:21:21 10° NW 20:24:04 23° NNE 20:25:18 19° NE visible
26 Sep -0.3 21:57:54 10° NW 21:58:13 12° NW 21:58:13 12° NW visible
27 Sep -1.8 19:33:15 10° NW 19:35:48 20° N 19:38:22 10° ENE visible
27 Sep -2.2 21:09:51 10° NW 21:11:57 32° NNW 21:11:57 32° NNW visible
28 Sep -2.8 20:21:48 10° NW 20:24:55 35° NNE 20:25:42 30° NE visible
28 Sep -0.2 21:58:34 10° WNW 21:58:37 10° WNW 21:58:37 10° WNW visible
29 Sep -2.4 19:33:44 10° NW 19:36:39 27° NNE 19:39:28 10° ENE visible
29 Sep -2.1 21:10:18 10° WNW 21:12:23 34° WNW 21:12:23 34° WNW visible
30 Sep -3.8 20:22:07 10° NW 20:25:28 75° NNE 20:26:12 50° ESE visible
01 Oct -3.3 19:33:57 10° NW 19:37:12 48° NNE 19:40:03 13° E visible
01 Oct -1.5 21:11:02 10° W 21:12:59 22° WSW 21:12:59 22° WSW visible
02 Oct -2.8 20:22:30 10° WNW 20:25:41 41° SW 20:26:54 28° S visible
03 Oct -3.6 19:34:08 10° WNW 19:37:27 71° SW 19:40:47 10° SE visible
